[Date Prev][Date Next][Thread Prev][Thread Next] - [Date Index][Thread Index][Author Index]
2 Line ISS Keps 8-5
- Subject: [sarex] 2 Line ISS Keps 8-5
- From: "Dave Larsen PhD" <doc@xxxxxxxxxxx>
- Date: Tue, 5 Aug 2003 05:25:21 -0700
ISS
1 25544U 98067A 03217.23809752 .00013380 00000-0 16247-3 0 2978
2 25544 51.6320 133.3901 0008361 88.6876 41.0295 15.60904956268664
----
Via the sarex mailing list at AMSAT.ORG courtesy of AMSAT-NA.
To unsubscribe, send "unsubscribe sarex" to Majordomo@amsat.org
AMSAT Home